EZY2124 EGPH-LEPA

Flight info

Callsign EZY2124
Flight time 2h 38m
Altitude 37000
Route GOSAM P600 FENIK L612 NAVSO DCT AKOMU DCT VAMEB UL612 HON DCT SITET UN859 SOPIL DCT BALAN DCT EVPOK DCT NARAK DCT GAI DCT LOMRA DCT ROCAN DCT IBRAP N13 LORES
Aircraft A20N/M-SDE2E3FGHIRWXY/LB1

Departure

Time 2026-05-03 20:50
Airport Edinburgh Airport (EGPH)

Arrival

Time 2026-05-03 23:28
Airport Palma de Mallorca Airport (LEPA)
Time Latitude Longitude Altitude Speed Heading
2026-05-03 20:15 55.94939 -3.36354 110 ft 0 kts 148°
2026-05-03 20:30 55.94953 -3.36370 107 ft 3 kts 148°
2026-05-03 20:30 55.94966 -3.36384 108 ft 3 kts 155°
2026-05-03 20:31 55.94984 -3.36392 108 ft 2 kts 174°
2026-05-03 20:31 55.95000 -3.36384 108 ft 2 kts 194°
2026-05-03 20:31 55.95009 -3.36377 109 ft 0 kts 227°
2026-05-03 20:36 55.95009 -3.36379 109 ft 1 kts 237°
2026-05-03 20:37 55.94996 -3.36420 107 ft 7 kts 246°
2026-05-03 20:37 55.94968 -3.36530 109 ft 12 kts 242°
2026-05-03 20:37 55.94918 -3.36680 109 ft 16 kts 240°
2026-05-03 20:37 55.94915 -3.36847 107 ft 8 kts 295°
2026-05-03 20:38 55.94906 -3.36954 107 ft 10 kts 243°
2026-05-03 20:38 55.94864 -3.37078 108 ft 13 kts 239°
2026-05-03 20:38 55.94811 -3.37235 108 ft 17 kts 239°
2026-05-03 20:38 55.94750 -3.37417 112 ft 17 kts 239°
2026-05-03 20:39 55.94684 -3.37613 115 ft 19 kts 239°
2026-05-03 20:39 55.94611 -3.37830 115 ft 22 kts 237°
2026-05-03 20:39 55.94524 -3.38077 114 ft 25 kts 237°
2026-05-03 20:39 55.94433 -3.38349 114 ft 25 kts 239°
2026-05-03 20:40 55.94349 -3.38588 117 ft 9 kts 234°
2026-05-03 20:40 55.94347 -3.38595 117 ft 0 kts 237°
2026-05-03 20:40 55.94344 -3.38604 121 ft 2 kts 237°
2026-05-03 20:41 55.94328 -3.38648 118 ft 6 kts 239°
2026-05-03 20:41 55.94300 -3.38742 119 ft 11 kts 242°
2026-05-03 20:41 55.94286 -3.38854 122 ft 5 kts 298°
2026-05-03 20:41 55.94320 -3.38899 122 ft 8 kts 329°
2026-05-03 20:42 55.94325 -3.38905 121 ft 0 kts 330°
2026-05-03 20:46 55.94326 -3.38906 121 ft 2 kts 330°
2026-05-03 20:46 55.94361 -3.38942 120 ft 10 kts 330°
2026-05-03 20:46 55.94412 -3.38960 120 ft 5 kts 37°
2026-05-03 20:46 55.94432 -3.38915 122 ft 0 kts 57°
2026-05-03 20:49 55.94433 -3.38912 122 ft 2 kts 57°
2026-05-03 20:49 55.94551 -3.38570 115 ft 66 kts 58°
2026-05-03 20:49 55.94906 -3.37523 112 ft 132 kts 59°
2026-05-03 20:49 55.95471 -3.35872 270 ft 169 kts 56°
2026-05-03 20:50 55.96194 -3.34168 896 ft 168 kts 47°
2026-05-03 20:50 55.97010 -3.32724 1702 ft 170 kts 43°
2026-05-03 20:50 55.97945 -3.31182 2013 ft 196 kts 42°
2026-05-03 20:50 55.99008 -3.29498 2421 ft 211 kts 38°
2026-05-03 20:51 56.00323 -3.28206 2872 ft 224 kts 15°
2026-05-03 20:51 56.01882 -3.28217 3528 ft 228 kts 344°
2026-05-03 20:51 56.03222 -3.29704 4226 ft 232 kts 313°
2026-05-03 20:51 56.03921 -3.32312 4879 ft 239 kts 281°
2026-05-03 20:52 56.03887 -3.34290 5317 ft 243 kts 261°
2026-05-03 20:52 56.03376 -3.37165 5838 ft 247 kts 251°
2026-05-03 20:52 56.02722 -3.40026 6050 ft 249 kts 249°
2026-05-03 20:52 56.02056 -3.42892 6027 ft 251 kts 250°
2026-05-03 20:53 56.01492 -3.45944 5983 ft 268 kts 256°
2026-05-03 20:53 56.01002 -3.49204 6013 ft 274 kts 257°
2026-05-03 20:53 56.00530 -3.52494 6016 ft 273 kts 257°
2026-05-03 20:53 56.00062 -3.55781 6021 ft 273 kts 257°
2026-05-03 20:54 55.99594 -3.59066 6019 ft 273 kts 257°
2026-05-03 20:54 55.98661 -3.65595 6013 ft 273 kts 257°
2026-05-03 20:54 55.98190 -3.68876 6042 ft 273 kts 257°
2026-05-03 20:55 55.97715 -3.72185 6506 ft 277 kts 257°
2026-05-03 20:55 55.97243 -3.75467 7393 ft 276 kts 257°
2026-05-03 20:55 55.96759 -3.78818 8381 ft 275 kts 257°
2026-05-03 20:55 55.96281 -3.82127 9311 ft 276 kts 257°
2026-05-03 20:56 55.95800 -3.85449 10171 ft 279 kts 257°
2026-05-03 20:56 55.95301 -3.88883 10715 ft 294 kts 256°
2026-05-03 20:56 55.94654 -3.92442 11175 ft 311 kts 249°
2026-05-03 20:56 55.93633 -3.95960 11626 ft 329 kts 238°
2026-05-03 20:57 55.92163 -3.99213 12059 ft 347 kts 227°
2026-05-03 20:57 55.90352 -4.02222 12525 ft 362 kts 223°
2026-05-03 20:57 55.88434 -4.05201 13200 ft 370 kts 222°
2026-05-03 20:57 55.86477 -4.08226 13961 ft 374 kts 222°
2026-05-03 20:58 55.84504 -4.11287 14657 ft 378 kts 222°
2026-05-03 20:58 55.82513 -4.14383 15369 ft 382 kts 223°
2026-05-03 20:58 55.80506 -4.17509 16080 ft 386 kts 223°
2026-05-03 20:58 55.78437 -4.20586 16780 ft 390 kts 219°
2026-05-03 20:59 55.76256 -4.23502 17473 ft 394 kts 217°
2026-05-03 20:59 55.73837 -4.25824 18138 ft 400 kts 201°
2026-05-03 20:59 55.71088 -4.26763 18708 ft 408 kts 182°
2026-05-03 20:59 55.68268 -4.26032 19248 ft 414 kts 164°
2026-05-03 21:00 55.65576 -4.24158 19785 ft 418 kts 155°
2026-05-03 21:00 55.63859 -4.22588 20147 ft 421 kts 151°
2026-05-03 21:00 55.60462 -4.19047 20901 ft 426 kts 149°
2026-05-03 21:00 55.57922 -4.16298 21460 ft 430 kts 149°
2026-05-03 21:01 55.55356 -4.13568 22008 ft 433 kts 149°
2026-05-03 21:01 55.52742 -4.10871 22546 ft 436 kts 150°
2026-05-03 21:01 55.50092 -4.08210 23062 ft 440 kts 150°
2026-05-03 21:01 55.47406 -4.05568 23569 ft 443 kts 151°
2026-05-03 21:02 55.44698 -4.02934 23994 ft 446 kts 151°
2026-05-03 21:02 55.41971 -4.00299 24462 ft 448 kts 150°
2026-05-03 21:02 55.39227 -3.97653 24828 ft 452 kts 150°
2026-05-03 21:02 55.36459 -3.94987 25206 ft 455 kts 150°
2026-05-03 21:03 55.33670 -3.92302 25588 ft 459 kts 150°
2026-05-03 21:03 55.30863 -3.89600 25960 ft 462 kts 149°
2026-05-03 21:03 55.28028 -3.86874 26337 ft 466 kts 149°
2026-05-03 21:03 55.25182 -3.84140 26730 ft 468 kts 149°
2026-05-03 21:04 55.22351 -3.81438 27092 ft 471 kts 150°
2026-05-03 21:04 55.19404 -3.78766 27463 ft 473 kts 152°
2026-05-03 21:04 55.16448 -3.76199 27900 ft 474 kts 152°
2026-05-03 21:04 55.13481 -3.73675 28367 ft 474 kts 152°
2026-05-03 21:05 55.10550 -3.71196 28821 ft 474 kts 152°
2026-05-03 21:05 55.07583 -3.68687 29264 ft 474 kts 152°
2026-05-03 21:05 55.04622 -3.66176 29719 ft 474 kts 151°
2026-05-03 21:05 55.01658 -3.63657 30140 ft 474 kts 151°
2026-05-03 21:06 54.98697 -3.61137 30522 ft 473 kts 151°
2026-05-03 21:06 54.95746 -3.58627 30928 ft 471 kts 151°
2026-05-03 21:06 54.92819 -3.56138 31490 ft 465 kts 153°
2026-05-03 21:06 54.89932 -3.53688 32047 ft 460 kts 153°
2026-05-03 21:07 54.87060 -3.51254 32367 ft 460 kts 153°
2026-05-03 21:07 54.84178 -3.48814 32645 ft 461 kts 153°
2026-05-03 21:07 54.81298 -3.46381 32909 ft 461 kts 153°
2026-05-03 21:07 54.78412 -3.43946 33231 ft 461 kts 153°
2026-05-03 21:08 54.75527 -3.41518 33510 ft 461 kts 154°
2026-05-03 21:08 54.72642 -3.39093 33797 ft 461 kts 154°
2026-05-03 21:08 54.69766 -3.36678 34129 ft 459 kts 155°
2026-05-03 21:08 54.66891 -3.34269 34383 ft 458 kts 155°
2026-05-03 21:09 54.64021 -3.31867 34588 ft 459 kts 155°
2026-05-03 21:09 54.61142 -3.29463 34780 ft 460 kts 155°
2026-05-03 21:09 54.58274 -3.27072 35117 ft 456 kts 155°
2026-05-03 21:09 54.55426 -3.24700 35412 ft 454 kts 155°
2026-05-03 21:10 54.52576 -3.22331 35551 ft 456 kts 155°
2026-05-03 21:10 54.49721 -3.19961 35783 ft 454 kts 155°
2026-05-03 21:10 54.46882 -3.17607 36096 ft 451 kts 155°
2026-05-03 21:10 54.44057 -3.15270 36296 ft 451 kts 155°
2026-05-03 21:11 54.41227 -3.12931 36496 ft 451 kts 155°
2026-05-03 21:11 54.38403 -3.10602 36634 ft 451 kts 155°
2026-05-03 21:11 54.35574 -3.08273 36771 ft 452 kts 155°
2026-05-03 21:11 54.32735 -3.05938 36939 ft 452 kts 155°
2026-05-03 21:12 54.27047 -3.01272 36985 ft 453 kts 155°
2026-05-03 21:12 54.21366 -2.96625 36985 ft 452 kts 155°
2026-05-03 21:13 54.15676 -2.92049 36986 ft 450 kts 157°
2026-05-03 21:13 54.09937 -2.87814 36986 ft 450 kts 158°
2026-05-03 21:14 54.04173 -2.83681 36981 ft 449 kts 159°
2026-05-03 21:14 53.98410 -2.79538 36980 ft 449 kts 159°
2026-05-03 21:15 53.92661 -2.75385 36976 ft 449 kts 159°
2026-05-03 21:15 53.86914 -2.71235 36982 ft 448 kts 159°
2026-05-03 21:16 53.81206 -2.67128 36975 ft 448 kts 158°
2026-05-03 21:16 53.75461 -2.63007 36976 ft 449 kts 159°
2026-05-03 21:17 53.70646 -2.59564 36961 ft 448 kts 159°
2026-05-03 21:17 53.63983 -2.54812 36968 ft 447 kts 159°
2026-05-03 21:18 53.58259 -2.50743 36971 ft 447 kts 159°
2026-05-03 21:18 53.52529 -2.46682 36970 ft 447 kts 159°
2026-05-03 21:19 53.46802 -2.42635 36972 ft 447 kts 159°
2026-05-03 21:19 53.41071 -2.38597 36969 ft 447 kts 159°
2026-05-03 21:20 53.35341 -2.34572 36969 ft 447 kts 159°
2026-05-03 21:20 53.29612 -2.30559 36967 ft 447 kts 159°
2026-05-03 21:21 53.23877 -2.26553 36966 ft 447 kts 159°
2026-05-03 21:21 53.18144 -2.22561 36959 ft 446 kts 159°
2026-05-03 21:22 53.12422 -2.18588 36959 ft 446 kts 159°
2026-05-03 21:22 53.06701 -2.14628 36955 ft 446 kts 159°
2026-05-03 21:23 53.00971 -2.10672 36948 ft 445 kts 159°
2026-05-03 21:23 52.95249 -2.06733 36948 ft 446 kts 159°
2026-05-03 21:24 52.89522 -2.02803 36949 ft 446 kts 159°
2026-05-03 21:24 52.83795 -1.98881 36940 ft 445 kts 160°
2026-05-03 21:25 52.78081 -1.94982 36946 ft 444 kts 160°
2026-05-03 21:25 52.72367 -1.91095 36940 ft 444 kts 160°
2026-05-03 21:26 52.66663 -1.87224 36940 ft 442 kts 160°
2026-05-03 21:26 52.60973 -1.83374 36938 ft 442 kts 160°
2026-05-03 21:27 52.55278 -1.79532 36937 ft 442 kts 160°
2026-05-03 21:27 52.49579 -1.75696 36939 ft 442 kts 160°
2026-05-03 21:28 52.43892 -1.71880 36938 ft 441 kts 160°
2026-05-03 21:28 52.38209 -1.68078 36939 ft 441 kts 160°
2026-05-03 21:29 52.32562 -1.64094 36935 ft 442 kts 157°
2026-05-03 21:29 52.27005 -1.59766 36932 ft 443 kts 156°
2026-05-03 21:30 52.21508 -1.55432 36936 ft 440 kts 157°
2026-05-03 21:30 52.15989 -1.51134 36938 ft 439 kts 157°
2026-05-03 21:31 52.10470 -1.46880 36926 ft 439 kts 157°
2026-05-03 21:31 52.04954 -1.42646 36929 ft 437 kts 157°
2026-05-03 21:32 51.99460 -1.38442 36930 ft 437 kts 157°
2026-05-03 21:32 51.93994 -1.34270 36937 ft 437 kts 157°
2026-05-03 21:33 51.88492 -1.30079 36936 ft 437 kts 157°
2026-05-03 21:33 51.83030 -1.25931 36939 ft 437 kts 158°
2026-05-03 21:34 51.77515 -1.21754 36937 ft 438 kts 158°
2026-05-03 21:34 51.71995 -1.17585 36908 ft 439 kts 158°
2026-05-03 21:35 51.66462 -1.13416 36914 ft 439 kts 158°
2026-05-03 21:35 51.60932 -1.09261 36912 ft 439 kts 158°
2026-05-03 21:36 51.55392 -1.05110 36908 ft 439 kts 158°
2026-05-03 21:36 51.49862 -1.00977 36911 ft 438 kts 158°
2026-05-03 21:37 51.45270 -0.97554 36916 ft 438 kts 158°
2026-05-03 21:37 51.39746 -0.93445 36911 ft 437 kts 158°
2026-05-03 21:38 51.34204 -0.89335 36920 ft 436 kts 158°
2026-05-03 21:38 51.28705 -0.85268 36940 ft 435 kts 158°
2026-05-03 21:39 51.23268 -0.81257 36939 ft 435 kts 158°
2026-05-03 21:39 51.17752 -0.77199 36938 ft 435 kts 158°
2026-05-03 21:40 51.12263 -0.73171 36934 ft 435 kts 158°
2026-05-03 21:40 51.06767 -0.69149 36929 ft 435 kts 158°
2026-05-03 21:41 51.01267 -0.65134 36928 ft 435 kts 158°
2026-05-03 21:41 50.95764 -0.61128 36921 ft 435 kts 158°
2026-05-03 21:42 50.90268 -0.57137 36923 ft 435 kts 158°
2026-05-03 21:42 50.84763 -0.53150 36924 ft 435 kts 158°
2026-05-03 21:43 50.79261 -0.49175 36928 ft 435 kts 158°
2026-05-03 21:43 50.73757 -0.45209 36927 ft 435 kts 159°
2026-05-03 21:44 50.68246 -0.41249 36926 ft 435 kts 159°
2026-05-03 21:44 50.62738 -0.37301 36925 ft 435 kts 159°
2026-05-03 21:45 50.57235 -0.33367 36931 ft 435 kts 159°
2026-05-03 21:45 50.51725 -0.29437 36930 ft 435 kts 159°
2026-05-03 21:46 50.46220 -0.25522 36932 ft 435 kts 159°
2026-05-03 21:46 50.40713 -0.21615 36931 ft 434 kts 159°
2026-05-03 21:47 50.35203 -0.17716 36934 ft 434 kts 159°
2026-05-03 21:47 50.29703 -0.13834 36936 ft 434 kts 159°
2026-05-03 21:48 50.24203 -0.09962 36936 ft 434 kts 159°
2026-05-03 21:48 50.18700 -0.06097 36930 ft 434 kts 159°
2026-05-03 21:49 50.13196 -0.02242 36938 ft 433 kts 159°
2026-05-03 21:49 50.07612 0.00879 36932 ft 428 kts 167°
2026-05-03 21:50 50.01858 0.03275 36938 ft 427 kts 169°
2026-05-03 21:50 49.96090 0.05522 36930 ft 427 kts 169°
2026-05-03 21:51 49.90363 0.07739 36938 ft 427 kts 169°
2026-05-03 21:51 49.84567 0.09997 36943 ft 427 kts 169°
2026-05-03 21:52 49.78847 0.12230 36949 ft 427 kts 169°
2026-05-03 21:52 49.73052 0.14491 36951 ft 427 kts 169°
2026-05-03 21:53 49.67334 0.16725 36964 ft 427 kts 169°
2026-05-03 21:53 49.61593 0.19028 36964 ft 427 kts 169°
2026-05-03 21:54 49.55848 0.21350 36967 ft 427 kts 169°
2026-05-03 21:54 49.50106 0.23664 36965 ft 426 kts 169°
2026-05-03 21:55 49.44377 0.25961 36945 ft 425 kts 169°
2026-05-03 21:55 49.38659 0.28245 36943 ft 425 kts 169°
2026-05-03 21:56 49.32936 0.30526 36943 ft 425 kts 169°
2026-05-03 21:56 49.27220 0.32864 36941 ft 425 kts 169°
2026-05-03 21:57 49.21530 0.35271 36947 ft 424 kts 168°
2026-05-03 21:57 49.15840 0.37681 36949 ft 424 kts 169°
2026-05-03 21:58 49.10154 0.40074 36948 ft 424 kts 169°
2026-05-03 21:58 49.04462 0.42458 36951 ft 423 kts 169°
2026-05-03 21:59 48.98793 0.44826 36947 ft 422 kts 169°
2026-05-03 21:59 48.93133 0.47183 36952 ft 421 kts 169°
2026-05-03 22:00 48.87475 0.49534 36955 ft 421 kts 169°
2026-05-03 22:00 48.81821 0.51878 36955 ft 421 kts 169°
2026-05-03 22:01 48.76162 0.54183 36955 ft 421 kts 170°
2026-05-03 22:01 48.70493 0.56407 36958 ft 421 kts 170°
2026-05-03 22:02 48.64858 0.58599 36944 ft 421 kts 170°
2026-05-03 22:02 48.59188 0.60808 36956 ft 420 kts 170°
2026-05-03 22:03 48.53528 0.63012 36958 ft 420 kts 170°
2026-05-03 22:03 48.47876 0.65267 36958 ft 420 kts 169°
2026-05-03 22:04 48.42237 0.67568 36950 ft 420 kts 169°
2026-05-03 22:04 48.36593 0.69870 36960 ft 420 kts 170°
2026-05-03 22:05 48.30955 0.72157 36959 ft 420 kts 170°
2026-05-03 22:05 48.25311 0.74435 36961 ft 420 kts 170°
2026-05-03 22:06 48.19665 0.76673 36962 ft 420 kts 170°
2026-05-03 22:06 48.14012 0.78891 36963 ft 420 kts 170°
2026-05-03 22:07 48.08356 0.81107 36962 ft 420 kts 170°
2026-05-03 22:07 48.02704 0.83319 36962 ft 420 kts 170°
2026-05-03 22:08 47.97048 0.85529 36955 ft 421 kts 170°
2026-05-03 22:08 47.91363 0.87743 36968 ft 423 kts 170°
2026-05-03 22:09 47.85669 0.89959 36964 ft 423 kts 170°
2026-05-03 22:10 47.77129 0.93272 36956 ft 422 kts 170°
2026-05-03 22:10 47.71446 0.95471 36960 ft 422 kts 170°
2026-05-03 22:11 47.65761 0.97664 36964 ft 422 kts 170°
2026-05-03 22:11 47.60084 0.99850 36960 ft 422 kts 170°
2026-05-03 22:12 47.54404 1.02031 36963 ft 422 kts 171°
2026-05-03 22:12 47.48719 1.04210 36962 ft 421 kts 171°
2026-05-03 22:13 47.43019 1.06061 36966 ft 416 kts 179°
2026-05-03 22:13 47.37269 1.06363 36960 ft 413 kts 184°
2026-05-03 22:14 47.31567 1.06255 36967 ft 412 kts 185°
2026-05-03 22:14 47.25834 1.06071 36969 ft 412 kts 185°
2026-05-03 22:15 47.20098 1.05908 36970 ft 412 kts 185°
2026-05-03 22:15 47.14361 1.05767 36969 ft 413 kts 185°
2026-05-03 22:16 47.08578 1.05633 36972 ft 413 kts 185°
2026-05-03 22:16 47.02833 1.05498 36975 ft 413 kts 186°
2026-05-03 22:17 46.97089 1.05286 36972 ft 413 kts 186°
2026-05-03 22:17 46.91357 1.05031 36969 ft 411 kts 186°
2026-05-03 22:18 46.85644 1.04776 36975 ft 411 kts 186°
2026-05-03 22:18 46.79968 1.04530 36972 ft 411 kts 186°
2026-05-03 22:19 46.74251 1.04286 36978 ft 411 kts 186°
2026-05-03 22:19 46.68540 1.04044 36978 ft 411 kts 186°
2026-05-03 22:20 46.62825 1.03803 36975 ft 411 kts 186°
2026-05-03 22:20 46.57113 1.03562 36980 ft 411 kts 186°
2026-05-03 22:21 46.51375 1.03690 36980 ft 417 kts 178°
2026-05-03 22:21 46.45644 1.05251 36983 ft 421 kts 173°
2026-05-03 22:22 46.40889 1.06828 36985 ft 422 kts 172°
2026-05-03 22:22 46.35178 1.08788 36989 ft 422 kts 172°
2026-05-03 22:23 46.29464 1.10723 37002 ft 422 kts 172°
2026-05-03 22:23 46.23747 1.12631 36999 ft 422 kts 173°
2026-05-03 22:24 46.18030 1.14526 37004 ft 422 kts 173°
2026-05-03 22:24 46.12308 1.16419 37011 ft 421 kts 172°
2026-05-03 22:25 46.06599 1.18304 37017 ft 421 kts 172°
2026-05-03 22:25 46.00886 1.20187 37016 ft 422 kts 172°
2026-05-03 22:26 45.95142 1.22074 37012 ft 424 kts 172°
2026-05-03 22:26 45.89393 1.23961 37017 ft 424 kts 172°
2026-05-03 22:27 45.83639 1.25846 37019 ft 424 kts 172°
2026-05-03 22:27 45.77892 1.27725 37020 ft 424 kts 172°
2026-05-03 22:28 45.72138 1.29601 37021 ft 424 kts 172°
2026-05-03 22:28 45.66382 1.31474 37023 ft 424 kts 172°
2026-05-03 22:29 45.60623 1.33344 37017 ft 424 kts 172°
2026-05-03 22:29 45.54864 1.35211 37015 ft 425 kts 172°
2026-05-03 22:30 45.49088 1.37078 37017 ft 426 kts 172°
2026-05-03 22:30 45.43309 1.38942 37019 ft 426 kts 172°
2026-05-03 22:31 45.37524 1.40806 37010 ft 426 kts 172°
2026-05-03 22:31 45.31744 1.42663 37019 ft 427 kts 173°
2026-05-03 22:32 45.25949 1.44521 37016 ft 427 kts 173°
2026-05-03 22:32 45.20152 1.46376 37018 ft 427 kts 173°
2026-05-03 22:33 45.14361 1.48226 37018 ft 427 kts 173°
2026-05-03 22:33 45.08574 1.50070 37022 ft 426 kts 173°
2026-05-03 22:34 45.02788 1.51910 37021 ft 426 kts 173°
2026-05-03 22:34 44.96999 1.53747 36996 ft 426 kts 172°
2026-05-03 22:35 44.91234 1.55574 37009 ft 423 kts 172°
2026-05-03 22:35 44.85488 1.57391 37005 ft 423 kts 172°
2026-05-03 22:36 44.79782 1.59190 37007 ft 423 kts 172°
2026-05-03 22:36 44.73999 1.61009 36998 ft 423 kts 172°
2026-05-03 22:37 44.68258 1.62812 37000 ft 423 kts 172°
2026-05-03 22:37 44.62549 1.64602 36991 ft 423 kts 172°
2026-05-03 22:38 44.56767 1.66410 37002 ft 423 kts 172°
2026-05-03 22:38 44.51066 1.68190 36987 ft 423 kts 172°
2026-05-03 22:39 44.45324 1.69980 36987 ft 423 kts 172°
2026-05-03 22:39 44.39587 1.71764 36976 ft 423 kts 172°
2026-05-03 22:40 44.33834 1.73548 36986 ft 424 kts 172°
2026-05-03 22:40 44.28068 1.75261 36981 ft 423 kts 174°
2026-05-03 22:41 44.22273 1.76597 36982 ft 422 kts 175°
2026-05-03 22:41 44.16468 1.77819 36978 ft 422 kts 176°
2026-05-03 22:42 44.10655 1.79062 36978 ft 423 kts 175°
2026-05-03 22:42 44.04837 1.80334 36976 ft 423 kts 175°
2026-05-03 22:43 43.99020 1.81615 36973 ft 423 kts 175°
2026-05-03 22:43 43.93184 1.82737 36972 ft 422 kts 179°
2026-05-03 22:44 43.87338 1.83338 36967 ft 421 kts 181°
2026-05-03 22:44 43.81487 1.83819 36952 ft 421 kts 180°
2026-05-03 22:45 43.75635 1.84338 36966 ft 422 kts 180°
2026-05-03 22:45 43.69774 1.84895 36963 ft 422 kts 180°
2026-05-03 22:46 43.63918 1.85463 36961 ft 422 kts 180°
2026-05-03 22:46 43.58056 1.86031 36960 ft 422 kts 180°
2026-05-03 22:47 43.52191 1.86596 36959 ft 423 kts 180°
2026-05-03 22:47 43.46319 1.87160 36963 ft 423 kts 180°
2026-05-03 22:48 43.40488 1.87719 36953 ft 423 kts 180°
2026-05-03 22:48 43.34598 1.88282 36968 ft 424 kts 180°
2026-05-03 22:49 43.28709 1.88845 36973 ft 425 kts 180°
2026-05-03 22:49 43.22806 1.89410 36975 ft 425 kts 180°
2026-05-03 22:50 43.16911 1.89973 36977 ft 425 kts 180°
2026-05-03 22:50 43.11003 1.90536 36976 ft 426 kts 180°
2026-05-03 22:51 43.05092 1.91098 36973 ft 426 kts 180°
2026-05-03 22:51 42.99185 1.91658 36982 ft 426 kts 180°
2026-05-03 22:52 42.93273 1.92219 36983 ft 425 kts 180°
2026-05-03 22:52 42.87372 1.92776 36975 ft 425 kts 180°
2026-05-03 22:53 42.81470 1.93333 36977 ft 425 kts 180°
2026-05-03 22:53 42.75569 1.93888 36983 ft 425 kts 180°
2026-05-03 22:54 42.69667 1.94448 36987 ft 425 kts 179°
2026-05-03 22:54 42.63808 1.95934 36992 ft 431 kts 171°
2026-05-03 22:55 42.57990 1.97960 36994 ft 432 kts 170°
2026-05-03 22:55 42.52196 2.00078 37003 ft 431 kts 169°
2026-05-03 22:56 42.46398 2.02186 37011 ft 431 kts 170°
2026-05-03 22:56 42.40600 2.04271 37020 ft 431 kts 170°
2026-05-03 22:57 42.34796 2.06344 37019 ft 433 kts 169°
2026-05-03 22:57 42.28945 2.08421 37024 ft 436 kts 169°
2026-05-03 22:58 42.23072 2.10504 37028 ft 436 kts 169°
2026-05-03 22:58 42.17210 2.12581 36984 ft 436 kts 169°
2026-05-03 22:58 42.14271 2.13621 36729 ft 437 kts 169°
2026-05-03 22:59 42.11328 2.14661 36477 ft 438 kts 169°
2026-05-03 22:59 42.08379 2.15702 36220 ft 438 kts 169°
2026-05-03 22:59 42.05430 2.16742 35967 ft 438 kts 169°
2026-05-03 22:59 42.02520 2.17768 35720 ft 438 kts 169°
2026-05-03 23:00 41.99581 2.18803 35467 ft 437 kts 169°
2026-05-03 23:00 41.96639 2.19837 35222 ft 437 kts 169°
2026-05-03 23:00 41.93691 2.20873 34955 ft 438 kts 169°
2026-05-03 23:00 41.90740 2.21908 34706 ft 438 kts 169°
2026-05-03 23:01 41.87785 2.22944 34473 ft 438 kts 169°
2026-05-03 23:01 41.84840 2.23976 34239 ft 438 kts 169°
2026-05-03 23:01 41.81893 2.25008 33989 ft 438 kts 169°
2026-05-03 23:01 41.78948 2.26038 33721 ft 438 kts 169°
2026-05-03 23:02 41.76009 2.27066 33445 ft 436 kts 169°
2026-05-03 23:02 41.73068 2.28093 33159 ft 438 kts 169°
2026-05-03 23:02 41.70106 2.29126 32878 ft 441 kts 169°
2026-05-03 23:02 41.67142 2.30160 32613 ft 439 kts 169°
2026-05-03 23:03 41.64195 2.31188 32345 ft 438 kts 169°
2026-05-03 23:03 41.61242 2.32217 32090 ft 439 kts 169°
2026-05-03 23:03 41.58284 2.33245 31831 ft 440 kts 169°
2026-05-03 23:03 41.55322 2.34274 31577 ft 440 kts 169°
2026-05-03 23:04 41.52354 2.35304 31305 ft 441 kts 169°
2026-05-03 23:04 41.49373 2.36338 31054 ft 443 kts 169°
2026-05-03 23:04 41.46389 2.37372 30789 ft 444 kts 169°
2026-05-03 23:04 41.43398 2.38407 30542 ft 441 kts 169°
2026-05-03 23:05 41.40468 2.39424 30302 ft 430 kts 169°
2026-05-03 23:05 41.37603 2.40417 30053 ft 420 kts 169°
2026-05-03 23:05 41.34804 2.41385 29788 ft 411 kts 169°
2026-05-03 23:05 41.32063 2.42332 29487 ft 402 kts 169°
2026-05-03 23:06 41.29387 2.43255 29215 ft 393 kts 169°
2026-05-03 23:06 41.26762 2.44159 28941 ft 385 kts 170°
2026-05-03 23:06 41.24193 2.45042 28672 ft 381 kts 170°
2026-05-03 23:06 41.22467 2.45631 28492 ft 393 kts 170°
2026-05-03 23:07 41.19754 2.46553 28216 ft 413 kts 169°
2026-05-03 23:07 41.16908 2.47523 27936 ft 432 kts 169°
2026-05-03 23:07 41.13934 2.48539 27655 ft 449 kts 169°
2026-05-03 23:07 41.10889 2.49584 27389 ft 454 kts 169°
2026-05-03 23:08 41.07832 2.50635 27119 ft 454 kts 169°
2026-05-03 23:08 41.04774 2.51685 26865 ft 454 kts 169°
2026-05-03 23:08 41.01718 2.52731 26611 ft 455 kts 169°
2026-05-03 23:08 40.98649 2.53780 26359 ft 455 kts 169°
2026-05-03 23:09 40.95578 2.54827 26115 ft 456 kts 169°
2026-05-03 23:09 40.92497 2.55877 25865 ft 456 kts 169°
2026-05-03 23:09 40.89430 2.56922 25619 ft 455 kts 169°
2026-05-03 23:09 40.86369 2.57963 25358 ft 454 kts 169°
2026-05-03 23:10 40.83315 2.59001 25118 ft 453 kts 169°
2026-05-03 23:10 40.80271 2.60034 24874 ft 451 kts 169°
2026-05-03 23:10 40.77235 2.61064 24649 ft 450 kts 169°
2026-05-03 23:10 40.74206 2.62090 24418 ft 448 kts 169°
2026-05-03 23:11 40.71194 2.63109 24179 ft 447 kts 169°
2026-05-03 23:11 40.68183 2.64127 23951 ft 446 kts 169°
2026-05-03 23:11 40.65188 2.65139 23721 ft 444 kts 169°
2026-05-03 23:11 40.62195 2.66149 23475 ft 443 kts 169°
2026-05-03 23:12 40.59216 2.67153 23190 ft 441 kts 169°
2026-05-03 23:12 40.56270 2.68147 22514 ft 436 kts 169°
2026-05-03 23:12 40.53333 2.69136 21707 ft 435 kts 169°
2026-05-03 23:12 40.50425 2.70240 20902 ft 437 kts 163°
2026-05-03 23:13 40.47650 2.71925 20064 ft 441 kts 156°
2026-05-03 23:13 40.44954 2.73850 19216 ft 441 kts 155°
2026-05-03 23:13 40.42275 2.75811 18396 ft 441 kts 155°
2026-05-03 23:13 40.39599 2.77768 17477 ft 440 kts 155°
2026-05-03 23:14 40.36927 2.79714 16599 ft 437 kts 155°
2026-05-03 23:14 40.34271 2.81643 15954 ft 431 kts 155°
2026-05-03 23:14 40.31708 2.83505 15818 ft 411 kts 155°
2026-05-03 23:14 40.29259 2.85282 15697 ft 393 kts 156°
2026-05-03 23:15 40.26920 2.86974 15592 ft 377 kts 156°
2026-05-03 23:15 40.24672 2.88597 15477 ft 361 kts 156°
2026-05-03 23:15 40.22516 2.90150 15351 ft 347 kts 156°
2026-05-03 23:15 40.20436 2.91647 15176 ft 335 kts 157°
2026-05-03 23:16 40.18427 2.93091 15000 ft 324 kts 157°
2026-05-03 23:16 40.16491 2.94480 14669 ft 320 kts 157°
2026-05-03 23:16 40.14536 2.95877 14242 ft 320 kts 157°
2026-05-03 23:16 40.12589 2.97271 13849 ft 318 kts 157°
2026-05-03 23:17 40.10654 2.98656 13432 ft 316 kts 157°
2026-05-03 23:17 40.08730 3.00034 13008 ft 314 kts 156°
2026-05-03 23:17 40.06822 3.01400 12592 ft 312 kts 156°
2026-05-03 23:17 40.04925 3.02757 12200 ft 310 kts 156°
2026-05-03 23:18 40.03041 3.04104 11792 ft 308 kts 156°
2026-05-03 23:18 40.01166 3.05445 11382 ft 306 kts 156°
2026-05-03 23:18 39.99301 3.06776 10982 ft 305 kts 156°
2026-05-03 23:18 39.97444 3.08101 10571 ft 304 kts 155°
2026-05-03 23:19 39.95598 3.09419 10194 ft 302 kts 155°
2026-05-03 23:19 39.93708 3.10529 9794 ft 295 kts 169°
2026-05-03 23:19 39.91715 3.10668 9397 ft 283 kts 194°
2026-05-03 23:19 39.89868 3.09909 8999 ft 277 kts 205°
2026-05-03 23:20 39.88091 3.08923 8521 ft 278 kts 206°
2026-05-03 23:20 39.86331 3.07908 8084 ft 277 kts 206°
2026-05-03 23:20 39.84573 3.06900 7673 ft 275 kts 206°
2026-05-03 23:20 39.82823 3.05905 7265 ft 274 kts 205°
2026-05-03 23:21 39.81077 3.04918 6860 ft 273 kts 205°
2026-05-03 23:21 39.79345 3.03944 6447 ft 271 kts 205°
2026-05-03 23:21 39.77615 3.02973 6041 ft 270 kts 205°
2026-05-03 23:21 39.75894 3.02009 5636 ft 267 kts 205°
2026-05-03 23:22 39.72519 3.00120 4856 ft 264 kts 204°
2026-05-03 23:22 39.70841 2.99182 4451 ft 262 kts 204°
2026-05-03 23:22 39.69173 2.98250 4062 ft 260 kts 204°
2026-05-03 23:23 39.67537 2.97337 3824 ft 251 kts 204°
2026-05-03 23:23 39.65971 2.96447 3685 ft 240 kts 208°
2026-05-03 23:23 39.64663 2.95176 3455 ft 234 kts 225°
2026-05-03 23:23 39.63685 2.93524 3090 ft 228 kts 237°
2026-05-03 23:24 39.62913 2.91806 2791 ft 211 kts 237°
2026-05-03 23:24 39.62183 2.90242 2497 ft 196 kts 236°
2026-05-03 23:24 39.61490 2.88792 2240 ft 185 kts 236°
2026-05-03 23:24 39.60845 2.87424 1981 ft 170 kts 236°
2026-05-03 23:25 39.60258 2.86174 1763 ft 154 kts 236°
2026-05-03 23:25 39.59720 2.85033 1580 ft 144 kts 235°
2026-05-03 23:25 39.59222 2.83975 1408 ft 131 kts 236°
2026-05-03 23:25 39.58756 2.82988 1240 ft 128 kts 236°
2026-05-03 23:26 39.58287 2.81992 1069 ft 130 kts 237°
2026-05-03 23:26 39.57814 2.80989 896 ft 131 kts 237°
2026-05-03 23:26 39.57334 2.79968 723 ft 133 kts 238°
2026-05-03 23:26 39.56847 2.78935 545 ft 135 kts 238°
2026-05-03 23:27 39.56358 2.77897 367 ft 135 kts 239°
2026-05-03 23:27 39.55868 2.76857 183 ft 135 kts 239°
2026-05-03 23:27 39.55380 2.75821 30 ft 132 kts 239°
2026-05-03 23:27 39.55003 2.74985 31 ft 93 kts 235°
2026-05-03 23:28 39.54817 2.74553 34 ft 25 kts 256°
2026-05-03 23:28 39.54801 2.74344 35 ft 10 kts 274°
2026-05-03 23:28 39.54802 2.74340 35 ft 0 kts 273°
2026-05-03 23:29 39.54802 2.74325 35 ft 5 kts 271°
2026-05-03 23:29 39.54800 2.74259 35 ft 10 kts 267°
2026-05-03 23:29 39.54816 2.74163 35 ft 12 kts 295°
2026-05-03 23:29 39.54881 2.74084 34 ft 15 kts 327°
2026-05-03 23:30 39.54945 2.73997 36 ft 7 kts 261°
2026-05-03 23:30 39.54918 2.73957 36 ft 6 kts 215°
2026-05-03 23:30 39.54868 2.73920 36 ft 7 kts 197°
2026-05-03 23:30 39.54854 2.73896 36 ft 4 kts 244°
2026-05-03 23:31 39.54847 2.73846 37 ft 7 kts 269°
2026-05-03 23:31 39.54847 2.73836 37 ft 0 kts 267°